Year,Month,Day,Hour,Minute,Value (Times are PST for temperature in C)
2009,10,07,00,00,7.40
2009,10,07,00,01,7.30
2009,10,07,00,02,7.30
2009,10,07,00,03,7.30
2009,10,07,00,04,7.30
2009,10,07,00,05,7.30
2009,10,07,00,06,7.30
2009,10,07,00,07,7.20
2009,10,07,00,08,7.20
2009,10,07,00,09,7.20
2009,10,07,00,10,7.10
2009,10,07,00,11,7.10
2009,10,07,00,12,7.10
2009,10,07,00,13,7.10
2009,10,07,00,14,7.00
2009,10,07,00,15,7.00
2009,10,07,00,16,7.00
2009,10,07,00,17,7.00
2009,10,07,00,18,7.00
2009,10,07,00,19,7.00
2009,10,07,00,20,7.00
2009,10,07,00,21,7.00
2009,10,07,00,22,7.00
2009,10,07,00,23,7.00
2009,10,07,00,24,7.00
2009,10,07,00,25,6.90
2009,10,07,00,26,6.90
2009,10,07,00,27,6.90
2009,10,07,00,28,7.00
2009,10,07,00,29,7.00
2009,10,07,00,30,7.00
2009,10,07,00,31,7.00
2009,10,07,00,32,7.00
2009,10,07,00,33,6.90
2009,10,07,00,34,6.90
2009,10,07,00,35,6.90
2009,10,07,00,36,6.80
2009,10,07,00,37,6.80
2009,10,07,00,38,6.80
2009,10,07,00,39,6.80
2009,10,07,00,40,6.80
2009,10,07,00,41,6.80
2009,10,07,00,42,6.80
2009,10,07,00,43,6.80
2009,10,07,00,44,6.80
2009,10,07,00,45,6.80
2009,10,07,00,46,6.80
2009,10,07,00,47,6.80
2009,10,07,00,48,6.80
2009,10,07,00,49,6.80
2009,10,07,00,50,6.70
2009,10,07,00,51,6.70
2009,10,07,00,52,6.70
2009,10,07,00,53,6.70
2009,10,07,00,54,6.70
2009,10,07,00,55,6.70
2009,10,07,00,56,6.70
2009,10,07,00,57,6.70
2009,10,07,00,58,6.70
2009,10,07,00,59,6.70
2009,10,07,01,00,6.70
2009,10,07,01,01,6.70
2009,10,07,01,02,6.70
2009,10,07,01,03,6.70
2009,10,07,01,04,6.70
2009,10,07,01,05,6.70
2009,10,07,01,06,6.70
2009,10,07,01,07,6.70
2009,10,07,01,08,6.80
2009,10,07,01,09,6.80
2009,10,07,01,10,6.70
2009,10,07,01,11,6.70
2009,10,07,01,12,6.70
2009,10,07,01,13,6.70
2009,10,07,01,14,6.70
2009,10,07,01,15,6.70
2009,10,07,01,16,6.70
2009,10,07,01,17,6.70
2009,10,07,01,18,6.70
2009,10,07,01,19,6.70
2009,10,07,01,20,6.70
2009,10,07,01,21,6.70
2009,10,07,01,22,6.70
2009,10,07,01,23,6.80
2009,10,07,01,24,6.80
2009,10,07,01,25,6.80
2009,10,07,01,26,6.80
2009,10,07,01,27,6.80
2009,10,07,01,28,6.80
2009,10,07,01,29,6.80
2009,10,07,01,30,6.90
2009,10,07,01,31,6.90
2009,10,07,01,32,6.90
2009,10,07,01,33,6.90
2009,10,07,01,34,7.00
2009,10,07,01,35,7.00
2009,10,07,01,36,7.00
2009,10,07,01,37,7.10
2009,10,07,01,38,7.10
2009,10,07,01,39,7.20
2009,10,07,01,40,7.20
2009,10,07,01,41,7.30
2009,10,07,01,42,7.30
2009,10,07,01,43,7.30
2009,10,07,01,44,7.30
2009,10,07,01,45,7.40
2009,10,07,01,46,7.50
2009,10,07,01,47,7.50
2009,10,07,01,48,7.60
2009,10,07,01,49,7.60
2009,10,07,01,50,7.60
2009,10,07,01,51,7.70
2009,10,07,01,52,7.70
2009,10,07,01,53,7.70
2009,10,07,01,54,7.70
2009,10,07,01,55,7.80
2009,10,07,01,56,7.80
2009,10,07,01,57,7.80
2009,10,07,01,58,7.80
2009,10,07,01,59,7.80
2009,10,07,02,00,7.80
2009,10,07,02,01,7.90
2009,10,07,02,02,7.90
2009,10,07,02,03,7.90
2009,10,07,02,04,8.00
2009,10,07,02,05,8.00
2009,10,07,02,06,8.00
2009,10,07,02,07,8.10
2009,10,07,02,08,8.10
2009,10,07,02,09,8.20
2009,10,07,02,10,8.20
2009,10,07,02,11,8.30
2009,10,07,02,12,8.50
2009,10,07,02,13,8.50
2009,10,07,02,14,8.60
2009,10,07,02,15,8.60
2009,10,07,02,16,8.60
2009,10,07,02,17,8.60
2009,10,07,02,18,8.60
2009,10,07,02,19,8.60
2009,10,07,02,20,8.70
2009,10,07,02,21,8.70
2009,10,07,02,22,8.70
2009,10,07,02,23,8.70
2009,10,07,02,24,8.70
2009,10,07,02,25,8.70
2009,10,07,02,26,8.70
2009,10,07,02,27,8.70
2009,10,07,02,28,8.80
2009,10,07,02,29,8.80
2009,10,07,02,30,8.80
2009,10,07,02,31,8.80
2009,10,07,02,32,8.90
2009,10,07,02,33,8.90
2009,10,07,02,34,8.90
2009,10,07,02,35,8.90
2009,10,07,02,36,8.90
2009,10,07,02,37,8.90
2009,10,07,02,38,8.90
2009,10,07,02,39,9.00
2009,10,07,02,40,9.00
2009,10,07,02,41,9.00
2009,10,07,02,42,9.10
2009,10,07,02,43,9.10
2009,10,07,02,44,9.20
2009,10,07,02,45,9.20
2009,10,07,02,46,9.30
2009,10,07,02,47,9.40
2009,10,07,02,48,9.50
2009,10,07,02,49,9.60
2009,10,07,02,50,9.70
2009,10,07,02,51,9.70
2009,10,07,02,52,9.80
2009,10,07,02,53,9.80
2009,10,07,02,54,9.90
2009,10,07,02,55,9.90
2009,10,07,02,56,9.90
2009,10,07,02,57,10.00
2009,10,07,02,58,10.10
2009,10,07,02,59,10.10
2009,10,07,03,00,10.10
2009,10,07,03,01,10.10
2009,10,07,03,02,10.10
2009,10,07,03,03,10.10
2009,10,07,03,04,10.10
2009,10,07,03,05,10.10
2009,10,07,03,06,10.10
2009,10,07,03,07,10.10
2009,10,07,03,08,10.10
2009,10,07,03,09,10.10
2009,10,07,03,10,10.10
2009,10,07,03,11,10.10
2009,10,07,03,12,10.10
2009,10,07,03,13,10.10
2009,10,07,03,14,10.10
2009,10,07,03,15,10.10
2009,10,07,03,16,10.10
2009,10,07,03,17,10.10
2009,10,07,03,18,10.10
2009,10,07,03,19,10.10
2009,10,07,03,20,10.10
2009,10,07,03,21,10.10
2009,10,07,03,22,10.10
2009,10,07,03,23,10.10
2009,10,07,03,24,10.10
2009,10,07,03,25,10.10
2009,10,07,03,26,10.20
2009,10,07,03,27,10.20
2009,10,07,03,28,10.20
2009,10,07,03,29,10.20
2009,10,07,03,30,10.20
2009,10,07,03,31,10.20
2009,10,07,03,32,10.20
2009,10,07,03,33,10.30
2009,10,07,03,34,10.30
2009,10,07,03,35,10.30
2009,10,07,03,36,10.30
2009,10,07,03,37,10.30
2009,10,07,03,38,10.30
2009,10,07,03,39,10.40
2009,10,07,03,40,10.40
2009,10,07,03,41,10.50
2009,10,07,03,42,10.60
2009,10,07,03,43,10.60
2009,10,07,03,44,10.60
2009,10,07,03,45,10.70
2009,10,07,03,46,10.70
2009,10,07,03,47,10.70
2009,10,07,03,48,10.70
2009,10,07,03,49,10.80
2009,10,07,03,50,10.80
2009,10,07,03,51,10.80
2009,10,07,03,52,10.80
2009,10,07,03,53,10.90
2009,10,07,03,54,10.90
2009,10,07,03,55,10.90
2009,10,07,03,56,10.90
2009,10,07,03,57,10.90
2009,10,07,03,58,10.90
2009,10,07,03,59,10.90
2009,10,07,04,00,10.90
2009,10,07,04,01,10.90
2009,10,07,04,02,10.90
2009,10,07,04,03,10.90
2009,10,07,04,04,10.90
2009,10,07,04,05,10.90
2009,10,07,04,06,10.90
2009,10,07,04,07,10.90
2009,10,07,04,08,10.90
2009,10,07,04,09,10.90
2009,10,07,04,10,10.90
2009,10,07,04,11,11.00
2009,10,07,04,12,11.10
2009,10,07,04,13,11.10
2009,10,07,04,14,11.10
2009,10,07,04,15,11.00
2009,10,07,04,16,10.90
2009,10,07,04,17,10.90
2009,10,07,04,18,10.90
2009,10,07,04,19,10.90
2009,10,07,04,20,10.90
2009,10,07,04,21,10.90
2009,10,07,04,22,10.90
2009,10,07,04,23,10.90
2009,10,07,04,24,10.80
2009,10,07,04,25,10.80
2009,10,07,04,26,10.80
2009,10,07,04,27,10.80
2009,10,07,04,28,10.70
2009,10,07,04,29,10.70
2009,10,07,04,30,10.70
2009,10,07,04,31,10.70
2009,10,07,04,32,10.70
2009,10,07,04,33,10.70
2009,10,07,04,34,10.70
2009,10,07,04,35,10.70
2009,10,07,04,36,10.70
2009,10,07,04,37,10.70
2009,10,07,04,38,10.70
2009,10,07,04,39,10.60
2009,10,07,04,40,10.60
2009,10,07,04,41,10.60
2009,10,07,04,42,10.60
2009,10,07,04,43,10.60
2009,10,07,04,44,10.60
2009,10,07,04,45,10.60
2009,10,07,04,46,10.70
2009,10,07,04,47,10.70
2009,10,07,04,48,10.70
2009,10,07,04,49,10.70
2009,10,07,04,50,10.70
2009,10,07,04,51,10.70
2009,10,07,04,52,10.70
2009,10,07,04,53,10.70
2009,10,07,04,54,10.60
2009,10,07,04,55,10.60
2009,10,07,04,56,10.60
2009,10,07,04,57,10.60
2009,10,07,04,58,10.60
2009,10,07,04,59,10.60
2009,10,07,05,00,10.60
2009,10,07,05,01,10.60
2009,10,07,05,02,10.60
2009,10,07,05,03,10.50
2009,10,07,05,04,10.40
2009,10,07,05,05,10.40
2009,10,07,05,06,10.40
2009,10,07,05,07,10.40
2009,10,07,05,08,10.30
2009,10,07,05,09,10.20
2009,10,07,05,10,10.20
2009,10,07,05,11,10.10
2009,10,07,05,12,10.10
2009,10,07,05,13,10.10
2009,10,07,05,14,10.00
2009,10,07,05,15,9.90
2009,10,07,05,16,9.90
2009,10,07,05,17,9.90
2009,10,07,05,18,9.80
2009,10,07,05,19,9.80
2009,10,07,05,20,9.70
2009,10,07,05,21,9.70
2009,10,07,05,22,9.70
2009,10,07,05,23,9.80
2009,10,07,05,24,9.90
2009,10,07,05,25,9.90
2009,10,07,05,26,10.00
2009,10,07,05,27,10.10
2009,10,07,05,28,10.10
2009,10,07,05,29,10.10
2009,10,07,05,30,10.10
2009,10,07,05,31,10.10
2009,10,07,05,32,10.10
2009,10,07,05,33,10.10
2009,10,07,05,34,10.10
2009,10,07,05,35,10.10
2009,10,07,05,36,10.10
2009,10,07,05,37,10.10
2009,10,07,05,38,10.10
2009,10,07,05,39,10.00
2009,10,07,05,40,9.90
2009,10,07,05,41,9.90
2009,10,07,05,42,9.90
2009,10,07,05,43,9.90
2009,10,07,05,44,9.90
2009,10,07,05,45,9.90
2009,10,07,05,46,9.90
2009,10,07,05,47,9.90
2009,10,07,05,48,9.90
2009,10,07,05,49,9.90
2009,10,07,05,50,9.90
2009,10,07,05,51,9.90
2009,10,07,05,52,9.90
2009,10,07,05,53,9.90
2009,10,07,05,54,9.90
2009,10,07,05,55,9.90
2009,10,07,05,56,9.90
2009,10,07,05,57,9.90
2009,10,07,05,58,9.80
2009,10,07,05,59,9.80
2009,10,07,06,00,9.70
2009,10,07,06,01,9.70
2009,10,07,06,02,9.70
2009,10,07,06,03,9.70
2009,10,07,06,04,9.60
2009,10,07,06,05,9.50
2009,10,07,06,06,9.50
2009,10,07,06,07,9.40
2009,10,07,06,08,9.40
2009,10,07,06,09,9.30
2009,10,07,06,10,9.20
2009,10,07,06,11,9.20
2009,10,07,06,12,9.10
2009,10,07,06,13,9.00
2009,10,07,06,14,9.00
2009,10,07,06,15,9.00
2009,10,07,06,16,8.90
2009,10,07,06,17,8.90
2009,10,07,06,18,8.80
2009,10,07,06,19,8.80
2009,10,07,06,20,8.70
2009,10,07,06,21,8.70
2009,10,07,06,22,8.70
2009,10,07,06,23,8.60
2009,10,07,06,24,8.60
2009,10,07,06,25,8.50
2009,10,07,06,26,8.50
2009,10,07,06,27,8.40
2009,10,07,06,28,8.40
2009,10,07,06,29,8.30
2009,10,07,06,30,8.30
2009,10,07,06,31,8.20
2009,10,07,06,32,8.20
2009,10,07,06,33,8.20
2009,10,07,06,34,8.20
2009,10,07,06,35,8.10
2009,10,07,06,36,8.10
2009,10,07,06,37,8.00
2009,10,07,06,38,8.00
2009,10,07,06,39,8.00
2009,10,07,06,40,7.90
2009,10,07,06,41,7.90
2009,10,07,06,42,7.80
2009,10,07,06,43,7.80
2009,10,07,06,44,7.80
2009,10,07,06,45,7.80
2009,10,07,06,46,7.70
2009,10,07,06,47,7.70
2009,10,07,06,48,7.70
2009,10,07,06,49,7.60
2009,10,07,06,50,7.60
2009,10,07,06,51,7.60
2009,10,07,06,52,7.60
2009,10,07,06,53,7.50
2009,10,07,06,54,7.50
2009,10,07,06,55,7.40
2009,10,07,06,56,7.40
2009,10,07,06,57,7.40
2009,10,07,06,58,7.40
2009,10,07,06,59,7.30
2009,10,07,07,00,7.40
2009,10,07,07,01,7.40
2009,10,07,07,02,7.40
2009,10,07,07,03,7.40
2009,10,07,07,04,7.40
2009,10,07,07,05,7.40
2009,10,07,07,06,7.30
2009,10,07,07,07,7.30
2009,10,07,07,08,7.30
2009,10,07,07,09,7.30
2009,10,07,07,10,7.30
2009,10,07,07,11,7.30
2009,10,07,07,12,7.20
2009,10,07,07,13,7.20
2009,10,07,07,14,7.20
2009,10,07,07,15,7.20
2009,10,07,07,16,7.20
2009,10,07,07,17,7.20
2009,10,07,07,18,7.20
2009,10,07,07,19,7.20
2009,10,07,07,20,7.20
2009,10,07,07,21,7.10
2009,10,07,07,22,7.10
2009,10,07,07,23,7.10
2009,10,07,07,24,7.10
2009,10,07,07,25,7.10
2009,10,07,07,26,7.00
2009,10,07,07,27,7.00
2009,10,07,07,28,7.00
2009,10,07,07,29,7.00
2009,10,07,07,30,6.90
2009,10,07,07,31,6.90
2009,10,07,07,32,6.90
2009,10,07,07,33,6.90
2009,10,07,07,34,6.90
2009,10,07,07,35,6.80
2009,10,07,07,36,6.80
2009,10,07,07,37,6.80
2009,10,07,07,38,6.80
2009,10,07,07,39,6.80
2009,10,07,07,40,6.80
2009,10,07,07,41,6.80
2009,10,07,07,42,6.80
2009,10,07,07,43,6.80
2009,10,07,07,44,6.80
2009,10,07,07,45,6.80
2009,10,07,07,46,6.80
2009,10,07,07,47,6.70
2009,10,07,07,48,6.70
2009,10,07,07,49,6.70
2009,10,07,07,50,6.70
2009,10,07,07,51,6.70
2009,10,07,07,52,6.70
2009,10,07,07,53,6.70
2009,10,07,07,54,6.80
2009,10,07,07,55,6.80
2009,10,07,07,56,6.80
2009,10,07,07,57,6.80
2009,10,07,07,58,6.80
2009,10,07,07,59,6.80
2009,10,07,08,00,6.80
2009,10,07,08,01,6.80
2009,10,07,08,02,6.70
2009,10,07,08,03,6.70
2009,10,07,08,04,6.70
2009,10,07,08,05,6.70
2009,10,07,08,06,6.70
2009,10,07,08,07,6.70
2009,10,07,08,08,6.70
2009,10,07,08,09,6.70
2009,10,07,08,10,6.70
2009,10,07,08,11,6.70
2009,10,07,08,12,6.80
2009,10,07,08,13,6.80
2009,10,07,08,14,6.80
2009,10,07,08,15,6.80
2009,10,07,08,16,6.80
2009,10,07,08,17,6.80
2009,10,07,08,18,6.80
2009,10,07,08,19,6.80
2009,10,07,08,20,6.80
2009,10,07,08,21,6.80
2009,10,07,08,22,6.80
2009,10,07,08,23,6.80
2009,10,07,08,24,6.80
2009,10,07,08,25,6.90
2009,10,07,08,26,6.90
2009,10,07,08,27,6.90
2009,10,07,08,28,7.00
2009,10,07,08,29,7.00
2009,10,07,08,30,7.00
2009,10,07,08,31,7.10
2009,10,07,08,32,7.10
2009,10,07,08,33,7.20
2009,10,07,08,34,7.20
2009,10,07,08,35,7.30
2009,10,07,08,36,7.30
2009,10,07,08,37,7.30
2009,10,07,08,38,7.30
2009,10,07,08,39,7.30
2009,10,07,08,40,7.40
2009,10,07,08,41,7.40
2009,10,07,08,42,7.50
2009,10,07,08,43,7.50
2009,10,07,08,44,7.60
2009,10,07,08,45,7.60
2009,10,07,08,46,7.70
2009,10,07,08,47,7.70
2009,10,07,08,48,7.80
2009,10,07,08,49,7.80
2009,10,07,08,50,7.90
2009,10,07,08,51,8.00
2009,10,07,08,52,8.00
2009,10,07,08,53,8.10
2009,10,07,08,54,8.20
2009,10,07,08,55,8.20
2009,10,07,08,56,8.30
2009,10,07,08,57,8.40
2009,10,07,08,58,8.50
2009,10,07,08,59,8.60
2009,10,07,09,00,8.70
2009,10,07,09,01,8.70
2009,10,07,09,02,8.70
2009,10,07,09,03,8.70
2009,10,07,09,04,8.80
2009,10,07,09,05,8.80
2009,10,07,09,06,8.90
2009,10,07,09,07,8.90
2009,10,07,09,08,9.00
2009,10,07,09,09,9.10
2009,10,07,09,10,9.10
2009,10,07,09,11,9.20
2009,10,07,09,12,9.20
2009,10,07,09,13,9.30
2009,10,07,09,14,9.30
2009,10,07,09,15,9.40
2009,10,07,09,16,9.50
2009,10,07,09,17,9.60
2009,10,07,09,18,9.70
2009,10,07,09,19,9.70
2009,10,07,09,20,9.80
2009,10,07,09,21,9.90
2009,10,07,09,22,10.00
2009,10,07,09,23,10.10
2009,10,07,09,24,10.20
2009,10,07,09,25,10.20
2009,10,07,09,26,10.40
2009,10,07,09,27,10.40
2009,10,07,09,28,10.60
2009,10,07,09,29,10.60
2009,10,07,09,30,10.80
2009,10,07,09,31,10.90
2009,10,07,09,32,11.00
2009,10,07,09,33,11.10
2009,10,07,09,34,11.20
2009,10,07,09,35,11.30
2009,10,07,09,36,11.40
2009,10,07,09,37,11.40
2009,10,07,09,38,11.50
2009,10,07,09,39,11.60
2009,10,07,09,40,11.60
2009,10,07,09,41,11.70
2009,10,07,09,42,11.70
2009,10,07,09,43,11.80
2009,10,07,09,44,11.80
2009,10,07,09,45,11.90
2009,10,07,09,46,12.00
2009,10,07,09,47,12.10
2009,10,07,09,48,12.20
2009,10,07,09,49,12.20
2009,10,07,09,50,12.30
2009,10,07,09,51,12.30
2009,10,07,09,52,12.30
2009,10,07,09,53,12.30
2009,10,07,09,54,12.40
2009,10,07,09,55,12.40
2009,10,07,09,56,12.50
2009,10,07,09,57,12.60
2009,10,07,09,58,12.60
2009,10,07,09,59,12.60
2009,10,07,10,00,12.60
2009,10,07,10,01,12.60
2009,10,07,10,02,12.70
2009,10,07,10,03,12.80
2009,10,07,10,04,12.80
2009,10,07,10,05,12.80
2009,10,07,10,06,12.90
2009,10,07,10,07,13.00
2009,10,07,10,08,13.00
2009,10,07,10,09,13.10
2009,10,07,10,10,13.20
2009,10,07,10,11,13.20
2009,10,07,10,12,13.30
2009,10,07,10,13,13.20
2009,10,07,10,14,13.20
2009,10,07,10,15,13.30
2009,10,07,10,16,13.30
2009,10,07,10,17,13.30
2009,10,07,10,18,13.30
2009,10,07,10,19,13.30
2009,10,07,10,20,13.30
2009,10,07,10,21,13.30
2009,10,07,10,22,13.30
2009,10,07,10,23,13.30
2009,10,07,10,24,13.30
2009,10,07,10,25,13.40
2009,10,07,10,26,13.50
2009,10,07,10,27,13.60
2009,10,07,10,28,13.60
2009,10,07,10,29,13.60
2009,10,07,10,30,13.70
2009,10,07,10,31,13.60
2009,10,07,10,32,13.60
2009,10,07,10,33,13.60
2009,10,07,10,34,13.60
2009,10,07,10,35,13.60
2009,10,07,10,36,13.70
2009,10,07,10,37,13.70
2009,10,07,10,38,13.70
2009,10,07,10,39,13.70
2009,10,07,10,40,13.60
2009,10,07,10,41,13.50
2009,10,07,10,42,13.40
2009,10,07,10,43,13.40
2009,10,07,10,44,13.40
2009,10,07,10,45,13.40
2009,10,07,10,46,13.40
2009,10,07,10,47,13.50
2009,10,07,10,48,13.50
2009,10,07,10,49,13.50
2009,10,07,10,50,13.50
2009,10,07,10,51,13.60
2009,10,07,10,52,13.60
2009,10,07,10,53,13.70
2009,10,07,10,54,13.70
2009,10,07,10,55,13.70
2009,10,07,10,56,13.70
2009,10,07,10,57,13.70
2009,10,07,10,58,13.70
2009,10,07,10,59,13.70
2009,10,07,11,00,13.70
2009,10,07,11,01,13.80
2009,10,07,11,02,13.90
2009,10,07,11,03,13.90
2009,10,07,11,04,13.90
2009,10,07,11,05,13.90
2009,10,07,11,06,13.90
2009,10,07,11,07,13.80
2009,10,07,11,08,13.90
2009,10,07,11,09,13.80
2009,10,07,11,10,13.90
2009,10,07,11,11,13.90
2009,10,07,11,12,13.90
2009,10,07,11,13,13.90
2009,10,07,11,14,14.10
2009,10,07,11,15,14.10
2009,10,07,11,16,14.20
2009,10,07,11,17,14.20
2009,10,07,11,18,14.20
2009,10,07,11,19,14.10
2009,10,07,11,20,14.10
2009,10,07,11,21,14.00
2009,10,07,11,22,14.00
2009,10,07,11,23,14.00
2009,10,07,11,24,14.00
2009,10,07,11,25,14.00
2009,10,07,11,26,14.00
2009,10,07,11,27,14.00
2009,10,07,11,28,13.90
2009,10,07,11,29,13.80
2009,10,07,11,30,13.90
2009,10,07,11,31,13.90
2009,10,07,11,32,13.80
2009,10,07,11,33,13.90
2009,10,07,11,34,13.90
2009,10,07,11,35,13.90
2009,10,07,11,36,13.80
2009,10,07,11,37,13.80
2009,10,07,11,38,13.80
2009,10,07,11,39,13.70
2009,10,07,11,40,13.70
2009,10,07,11,41,13.80
2009,10,07,11,42,13.70
2009,10,07,11,43,13.80
2009,10,07,11,44,13.90
2009,10,07,11,45,13.80
2009,10,07,11,46,13.90
2009,10,07,11,47,13.90
2009,10,07,11,48,13.80
2009,10,07,11,49,13.70
2009,10,07,11,50,13.80
2009,10,07,11,51,13.80
2009,10,07,11,52,13.90
2009,10,07,11,53,14.00
2009,10,07,11,54,14.00
2009,10,07,11,55,14.00
2009,10,07,11,56,14.00
2009,10,07,11,57,14.00
2009,10,07,11,58,14.00
2009,10,07,11,59,14.00
2009,10,07,12,00,14.10
2009,10,07,12,01,14.20
2009,10,07,12,02,14.20
2009,10,07,12,03,14.20
2009,10,07,12,04,14.40
2009,10,07,12,05,14.40
2009,10,07,12,06,14.40
2009,10,07,12,07,14.40
2009,10,07,12,08,14.40
2009,10,07,12,09,14.40
2009,10,07,12,10,14.30
2009,10,07,12,11,14.30
2009,10,07,12,12,14.20
2009,10,07,12,13,14.20
2009,10,07,12,14,14.20
2009,10,07,12,15,14.20
2009,10,07,12,16,14.20
2009,10,07,12,17,14.20
2009,10,07,12,18,14.20
2009,10,07,12,19,14.30
2009,10,07,12,20,14.30
2009,10,07,12,21,14.30
2009,10,07,12,22,14.30
2009,10,07,12,23,14.40
2009,10,07,12,24,14.40
2009,10,07,12,25,14.50
2009,10,07,12,26,14.40
2009,10,07,12,27,14.30
2009,10,07,12,28,14.30
2009,10,07,12,29,14.20
2009,10,07,12,30,14.10
2009,10,07,12,31,14.00
2009,10,07,12,32,14.00
2009,10,07,12,33,14.00
2009,10,07,12,34,14.00
2009,10,07,12,35,14.00
2009,10,07,12,36,14.10
2009,10,07,12,37,14.10
2009,10,07,12,38,14.10
2009,10,07,12,39,14.10
2009,10,07,12,40,14.10
2009,10,07,12,41,14.10
2009,10,07,12,42,14.10
2009,10,07,12,43,14.10
2009,10,07,12,44,14.10
2009,10,07,12,45,14.10
2009,10,07,12,46,14.10
2009,10,07,12,47,14.00
2009,10,07,12,48,14.00
2009,10,07,12,49,13.90
2009,10,07,12,50,13.80
2009,10,07,12,51,13.70
2009,10,07,12,52,13.70
2009,10,07,12,53,13.70
2009,10,07,12,54,13.70
2009,10,07,12,55,13.90
2009,10,07,12,56,14.00
2009,10,07,12,57,14.10
2009,10,07,12,58,14.20
2009,10,07,12,59,14.20
2009,10,07,13,00,14.20
2009,10,07,13,01,14.20
2009,10,07,13,02,14.20
2009,10,07,13,03,14.20
2009,10,07,13,04,14.30
2009,10,07,13,05,14.30
2009,10,07,13,06,14.30
2009,10,07,13,07,14.40
2009,10,07,13,08,14.50
2009,10,07,13,09,14.50
2009,10,07,13,10,14.50
2009,10,07,13,11,14.60
2009,10,07,13,12,14.60
2009,10,07,13,13,14.50
2009,10,07,13,14,14.40
2009,10,07,13,15,14.40
2009,10,07,13,16,14.50
2009,10,07,13,17,14.50
2009,10,07,13,18,14.50
2009,10,07,13,19,14.50
2009,10,07,13,20,14.50
2009,10,07,13,21,14.50
2009,10,07,13,22,14.50
2009,10,07,13,23,14.50
2009,10,07,13,24,14.50
2009,10,07,13,25,14.40
2009,10,07,13,26,14.40
2009,10,07,13,27,14.50
2009,10,07,13,28,14.40
2009,10,07,13,29,14.20
2009,10,07,13,30,14.20
2009,10,07,13,31,14.20
2009,10,07,13,32,14.20
2009,10,07,13,33,14.20
2009,10,07,13,34,14.30
2009,10,07,13,35,14.40
2009,10,07,13,36,14.50
2009,10,07,13,37,14.50
2009,10,07,13,38,14.50
2009,10,07,13,39,14.50
2009,10,07,13,40,14.50
2009,10,07,13,41,14.50
2009,10,07,13,42,14.50
2009,10,07,13,43,14.60
2009,10,07,13,44,14.70
2009,10,07,13,45,14.80
2009,10,07,13,46,14.80
2009,10,07,13,47,14.90
2009,10,07,13,48,14.90
2009,10,07,13,49,14.90
2009,10,07,13,50,15.00
2009,10,07,13,51,15.00
2009,10,07,13,52,15.00
2009,10,07,13,53,15.00
2009,10,07,13,54,15.10
2009,10,07,13,55,15.10
2009,10,07,13,56,15.00
2009,10,07,13,57,15.10
2009,10,07,13,58,15.00
2009,10,07,13,59,15.00
2009,10,07,14,00,15.00
2009,10,07,14,01,15.00
2009,10,07,14,02,15.00
2009,10,07,14,03,15.00
2009,10,07,14,04,15.10
2009,10,07,14,05,15.10
2009,10,07,14,06,15.00
2009,10,07,14,07,14.90
2009,10,07,14,08,14.80
2009,10,07,14,09,14.80
2009,10,07,14,10,14.90
2009,10,07,14,11,15.00
2009,10,07,14,12,15.10
2009,10,07,14,13,15.20
2009,10,07,14,14,15.30
2009,10,07,14,15,15.40
2009,10,07,14,16,15.50
2009,10,07,14,17,15.50
2009,10,07,14,18,15.50
2009,10,07,14,19,15.60
2009,10,07,14,20,15.50
2009,10,07,14,21,15.50
2009,10,07,14,22,15.50
2009,10,07,14,23,15.40
2009,10,07,14,24,15.40
2009,10,07,14,25,15.50
2009,10,07,14,26,15.60
2009,10,07,14,27,15.60
2009,10,07,14,28,15.60
2009,10,07,14,29,15.60
2009,10,07,14,30,15.70
2009,10,07,14,31,15.80
2009,10,07,14,32,15.90
2009,10,07,14,33,16.00
2009,10,07,14,34,16.10
2009,10,07,14,35,16.10
2009,10,07,14,36,16.20
2009,10,07,14,37,16.20
2009,10,07,14,38,16.30
2009,10,07,14,39,16.40
2009,10,07,14,40,16.40
2009,10,07,14,41,16.40
2009,10,07,14,42,16.40
2009,10,07,14,43,16.40
2009,10,07,14,44,16.40
2009,10,07,14,45,16.40
2009,10,07,14,46,16.40
2009,10,07,14,47,16.40
2009,10,07,14,48,16.40
2009,10,07,14,49,16.40
2009,10,07,14,50,16.40
2009,10,07,14,51,16.50
2009,10,07,14,52,16.60
2009,10,07,14,53,16.70
2009,10,07,14,54,16.70
2009,10,07,14,55,16.80
2009,10,07,14,56,16.90
2009,10,07,14,57,16.90
2009,10,07,14,58,16.90
2009,10,07,14,59,16.90
2009,10,07,15,00,16.90
2009,10,07,15,01,17.00
2009,10,07,15,02,17.10
2009,10,07,15,03,17.10
2009,10,07,15,04,17.10
2009,10,07,15,05,17.20
2009,10,07,15,06,17.20
2009,10,07,15,07,17.30
2009,10,07,15,08,17.30
2009,10,07,15,09,17.30
2009,10,07,15,10,17.30
2009,10,07,15,11,17.30
2009,10,07,15,12,17.30
2009,10,07,15,13,17.30
2009,10,07,15,14,17.30
2009,10,07,15,15,17.30
2009,10,07,15,16,17.30
2009,10,07,15,17,17.30
2009,10,07,15,18,17.20
2009,10,07,15,19,17.30
2009,10,07,15,20,17.30
2009,10,07,15,21,17.30
2009,10,07,15,22,17.30
2009,10,07,15,23,17.30
2009,10,07,15,24,17.30
2009,10,07,15,25,17.10
2009,10,07,15,26,17.00
2009,10,07,15,27,16.80
2009,10,07,15,28,16.80
2009,10,07,15,29,16.80
2009,10,07,15,30,16.80
2009,10,07,15,31,16.80
2009,10,07,15,32,16.80
2009,10,07,15,33,16.80
2009,10,07,15,34,16.90
2009,10,07,15,35,16.90
2009,10,07,15,36,16.90
2009,10,07,15,37,16.90
2009,10,07,15,38,16.90
2009,10,07,15,39,16.90
2009,10,07,15,40,16.90
2009,10,07,15,41,16.90
2009,10,07,15,42,16.90
2009,10,07,15,43,16.80
2009,10,07,15,44,16.80
2009,10,07,15,45,16.70
2009,10,07,15,46,16.70
2009,10,07,15,47,16.60
2009,10,07,15,48,16.60
2009,10,07,15,49,16.50
2009,10,07,15,50,16.40
2009,10,07,15,51,16.40
2009,10,07,15,52,16.40
2009,10,07,15,53,16.50
2009,10,07,15,54,16.60
2009,10,07,15,55,16.70
2009,10,07,15,56,16.60
2009,10,07,15,57,16.60
2009,10,07,15,58,16.60
2009,10,07,15,59,16.60
2009,10,07,16,00,16.60
2009,10,07,16,01,16.60
2009,10,07,16,02,16.60
2009,10,07,16,03,16.60
2009,10,07,16,04,16.60
2009,10,07,16,05,16.50
2009,10,07,16,06,16.40
2009,10,07,16,07,16.40
2009,10,07,16,08,16.30
2009,10,07,16,09,16.30
2009,10,07,16,10,16.20
2009,10,07,16,11,16.20
2009,10,07,16,12,16.10
2009,10,07,16,13,16.10
2009,10,07,16,14,16.10
2009,10,07,16,15,16.10
2009,10,07,16,16,16.10
2009,10,07,16,17,16.10
2009,10,07,16,18,16.10
2009,10,07,16,19,16.10
2009,10,07,16,20,16.10
2009,10,07,16,21,16.10
2009,10,07,16,22,16.10
2009,10,07,16,23,16.00
2009,10,07,16,24,15.90
2009,10,07,16,25,15.90
2009,10,07,16,26,15.90
2009,10,07,16,27,16.00
2009,10,07,16,28,16.10
2009,10,07,16,29,16.10
2009,10,07,16,30,16.10
2009,10,07,16,31,16.10
2009,10,07,16,32,16.10
2009,10,07,16,33,16.10
2009,10,07,16,34,16.10
2009,10,07,16,35,16.10
2009,10,07,16,36,16.10
2009,10,07,16,37,15.90
2009,10,07,16,38,15.90
2009,10,07,16,39,15.80
2009,10,07,16,40,15.80
2009,10,07,16,41,15.80
2009,10,07,16,42,15.80
2009,10,07,16,43,15.80
2009,10,07,16,44,15.80
2009,10,07,16,45,15.70
2009,10,07,16,46,15.70
2009,10,07,16,47,15.70
2009,10,07,16,48,15.70
2009,10,07,16,49,15.70
2009,10,07,16,50,15.80
2009,10,07,16,51,15.80
2009,10,07,16,52,15.80
2009,10,07,16,53,15.80
2009,10,07,16,54,15.80
2009,10,07,16,55,15.80
2009,10,07,16,56,15.70
2009,10,07,16,57,15.70
2009,10,07,16,58,15.60
2009,10,07,16,59,15.50
2009,10,07,17,00,15.50
2009,10,07,17,01,15.50
2009,10,07,17,02,15.40
2009,10,07,17,03,15.40
2009,10,07,17,04,15.40
2009,10,07,17,05,15.40
2009,10,07,17,06,15.40
2009,10,07,17,07,15.40
2009,10,07,17,08,15.30
2009,10,07,17,09,15.30
2009,10,07,17,10,15.30
2009,10,07,17,11,15.30
2009,10,07,17,12,15.20
2009,10,07,17,13,15.20
2009,10,07,17,14,15.20
2009,10,07,17,15,15.20
2009,10,07,17,16,15.20
2009,10,07,17,17,15.20
2009,10,07,17,18,15.10
2009,10,07,17,19,15.10
2009,10,07,17,20,15.10
2009,10,07,17,21,15.10
2009,10,07,17,22,15.10
2009,10,07,17,23,15.00
2009,10,07,17,24,15.00
2009,10,07,17,25,14.90
2009,10,07,17,26,14.90
2009,10,07,17,27,14.80
2009,10,07,17,28,14.80
2009,10,07,17,29,14.80
2009,10,07,17,30,14.80
2009,10,07,17,31,14.80
2009,10,07,17,32,14.70
2009,10,07,17,33,14.70
2009,10,07,17,34,14.70
2009,10,07,17,35,14.60
2009,10,07,17,36,14.60
2009,10,07,17,37,14.60